Change the Weather History Date:

Tuesday, August 28, 2012

  Actual Average Record
Temperature  
Mean Temperature 83 °F 83 °F  
Max Temperature 89 °F 91 °F 97 °F (1987)
Min Temperature 76 °F 76 °F 63 °F (1973)
Degree Days  
Heating Degree Days 0 0  
Month to date heating degree days 0 0  
Since 1 June heating degree days 0 0  
Since 1 July heating degree days 0 0  
Cooling Degree Days 18 18  
Month to date cooling degree days 518 504  
Year to date cooling degree days 2837 2598  
Since 1 June cooling degree days 1570 1570  
Growing Degree Days 32 (Base 50)    
Moisture  
Dew Point 76 °F    
Average Humidity 80    
Maximum Humidity 91    
Minimum Humidity 68    
Precipitation  
Precipitation 0.90 in 0.29 in 2.50 in (1988)
Month to date precipitation 10.85 7.72  
Year to date precipitation 28.96 35.66  
Snow  
Snow 0.00 in - - ()
Month to date snowfall 0.0  
Since 1 June snowfall 0.0  
Since 1 July snowfall 0.0  
Snow Depth 0.00 in    
Sea Level Pressure  
Sea Level Pressure 29.94 in    
Wind  
Wind Speed 14 mph (SSE)    
Max Wind Speed 25 mph    
Max Gust Speed 32 mph    
Visibility 9 miles    
Events Fog , Rain , Thunderstorm    
T = Trace of Precipitation, MM = Missing Value Source: NWS Daily Summary

Daily Weather History Graph

Daily Weather History Graph

Search for Another Location

Airport or City:

Trip Planner

Search our weather history database for the weather conditions in past years. The results will help you decide how hot, cold, wet, or windy it might be!

Date:

Astronomy

Aug. 28, 2012 Rise Set
Actual Time 7:05 AM EDT 7:50 PM EDT
Civil Twilight 6:42 AM EDT 8:13 PM EDT
Nautical Twilight 6:14 AM EDT 8:41 PM EDT
Astronomical Twilight 5:46 AM EDT 9:09 PM EDT
Moon 5:42 PM EDT (8/28) 4:06 AM EDT (8/28)
Length of Visible Light 13h 31m
Length of Day
12h 44m
Waxing Gibbous, 90% of the Moon is Illuminated
Aug 28
Waxing Gibbous
Aug 31
Full
Sep 8
Last Quarter
Sep 15
New
Sep 22
First Quarter

Hourly Weather History & Observations

Time (EDT) Temp. Heat Index Dew Point Humidity Pressure Visibility Wind Dir Wind Speed Gust Speed Precip Events Conditions
12:53 AM 82.0 °F 91.0 °F 78.1 °F 88% 29.89 in 10.0 mi SSE 12.7 mph - N/A   Mostly Cloudy
1:53 AM 82.0 °F 90.2 °F 77.0 °F 85% 29.89 in 10.0 mi SSE 13.8 mph - N/A   Overcast
2:53 AM 82.0 °F 90.2 °F 77.0 °F 85% 29.89 in 10.0 mi SSE 13.8 mph - N/A   Mostly Cloudy
3:53 AM 82.0 °F 90.2 °F 77.0 °F 85% 29.89 in 10.0 mi SSE 12.7 mph - N/A   Mostly Cloudy
4:26 AM 82.4 °F 90.9 °F 77.0 °F 84% 29.89 in 10.0 mi SSE 12.7 mph - N/A   Mostly Cloudy
4:53 AM 82.0 °F 90.2 °F 77.0 °F 85% 29.88 in 10.0 mi SSE 12.7 mph 19.6 mph N/A   Partly Cloudy
5:53 AM 82.0 °F 89.4 °F 75.9 °F 82% 29.89 in 10.0 mi SSE 13.8 mph - N/A   Clear
6:53 AM 82.0 °F 90.2 °F 77.0 °F 85% 29.90 in 10.0 mi SSE 10.4 mph - N/A   Scattered Clouds
7:53 AM 82.0 °F 89.4 °F 75.9 °F 82% 29.92 in 9.0 mi SSE 15.0 mph 18.4 mph 0.00 in   Partly Cloudy
8:53 AM 84.0 °F 93.7 °F 77.0 °F 79% 29.93 in 9.0 mi South 13.8 mph 23.0 mph N/A   Scattered Clouds
9:53 AM 86.0 °F 96.0 °F 75.9 °F 72% 29.95 in 10.0 mi South 19.6 mph 26.5 mph N/A   Mostly Cloudy
10:53 AM 87.1 °F 98.8 °F 77.0 °F 72% 29.96 in 10.0 mi South 19.6 mph 28.8 mph N/A   Mostly Cloudy
11:40 AM 87.8 °F 99.7 °F 77.0 °F 70% 29.97 in 10.0 mi South 20.7 mph 29.9 mph N/A   Mostly Cloudy
11:53 AM 88.0 °F 100.2 °F 77.0 °F 70% 29.97 in 10.0 mi South 18.4 mph 27.6 mph N/A   Scattered Clouds
12:23 PM 87.8 °F 99.7 °F 77.0 °F 70% 29.97 in 10.0 mi South 20.7 mph 28.8 mph N/A   Mostly Cloudy
12:30 PM 87.8 °F 97.6 °F 75.2 °F 66% 29.97 in 10.0 mi South 19.6 mph 28.8 mph N/A   Scattered Clouds
12:53 PM 88.0 °F 100.2 °F 77.0 °F 70% 29.96 in 10.0 mi South 13.8 mph 24.2 mph N/A   Scattered Clouds
1:01 PM 87.8 °F 99.7 °F 77.0 °F 70% 29.96 in 10.0 mi South 12.7 mph 23.0 mph N/A   Mostly Cloudy
1:22 PM 87.8 °F 99.7 °F 77.0 °F 70% 29.96 in 10.0 mi South 17.3 mph 25.3 mph N/A   Scattered Clouds
1:53 PM 89.1 °F 103.2 °F 78.1 °F 70% 29.95 in 10.0 mi South 19.6 mph 28.8 mph N/A   Scattered Clouds
2:53 PM 88.0 °F 101.3 °F 78.1 °F 72% 29.93 in 10.0 mi South 17.3 mph 25.3 mph N/A   Scattered Clouds
3:53 PM 88.0 °F 100.2 °F 77.0 °F 70% 29.91 in 10.0 mi South 17.3 mph - N/A   Scattered Clouds
4:34 PM 89.6 °F 102.2 °F 77.0 °F 66% 29.91 in 10.0 mi South 18.4 mph 24.2 mph N/A   Mostly Cloudy
4:51 PM 87.8 °F 99.7 °F 77.0 °F 70% 29.91 in 10.0 mi South 19.6 mph 25.3 mph N/A   Scattered Clouds
4:53 PM 88.0 °F 100.2 °F 77.0 °F 70% 29.91 in 10.0 mi South 16.1 mph 25.3 mph N/A   Scattered Clouds
5:53 PM 87.1 °F 96.3 °F 75.0 °F 67% 29.90 in 10.0 mi South 17.3 mph 21.9 mph N/A   Scattered Clouds
6:53 PM 86.0 °F 96.0 °F 75.9 °F 72% 29.92 in 10.0 mi South 13.8 mph - N/A   Partly Cloudy
7:43 PM 84.2 °F 96.1 °F 78.8 °F 84% 29.94 in 10.0 mi SSE 11.5 mph - N/A   Mostly Cloudy
7:53 PM 84.9 °F 96.6 °F 78.1 °F 80% 29.94 in 10.0 mi SSE 8.1 mph - N/A   Mostly Cloudy
8:29 PM 84.2 °F 96.1 °F 78.8 °F 84% 29.94 in 10.0 mi SSE 10.4 mph - N/A   Scattered Clouds
8:53 PM 82.9 °F 92.8 °F 78.1 °F 85% 29.96 in 10.0 mi SE 11.5 mph - N/A   Scattered Clouds
9:34 PM 78.8 °F - 71.6 °F 78% 29.98 in 2.5 mi SSW 21.9 mph 32.2 mph 0.09 in Rain Rain
9:37 PM 75.2 °F - 71.6 °F 89% 29.99 in 1.0 mi SSW 12.7 mph 32.2 mph 0.26 in Rain Heavy Rain
9:42 PM 75.2 °F - 73.4 °F 94% 29.99 in 0.5 mi SSE 10.4 mph 18.4 mph 0.56 in Fog , Rain Heavy Rain
9:47 PM 77.0 °F - 73.4 °F 89% 29.99 in 0.8 mi SSW 16.1 mph 24.2 mph 0.72 in Rain , Thunderstorm Heavy Thunderstorms and Rain
9:53 PM 79.0 °F - 73.9 °F 84% 29.98 in 1.0 mi South 13.8 mph 32.2 mph 0.89 in Rain , Thunderstorm Heavy Thunderstorms and Rain
9:59 PM 80.6 °F 86.2 °F 75.2 °F 84% 29.97 in 2.0 mi SE 9.2 mph - 0.01 in Rain , Thunderstorm Light Thunderstorms and Rain
10:07 PM 78.8 °F - 75.2 °F 89% 29.98 in 10.0 mi ESE 5.8 mph - 0.01 in Thunderstorm Mostly Cloudy
10:15 PM 78.8 °F - 75.2 °F 89% 29.98 in 10.0 mi ESE 5.8 mph - 0.01 in   Mostly Cloudy
10:22 PM 80.6 °F 86.2 °F 75.2 °F 84% 29.98 in 10.0 mi ESE 6.9 mph - 0.01 in   Scattered Clouds
10:53 PM 81.0 °F 87.9 °F 77.0 °F 88% 29.99 in 10.0 mi SE 9.2 mph - 0.01 in   Clear
11:53 PM 81.0 °F 87.9 °F 77.0 °F 88% 29.98 in 10.0 mi SE 9.2 mph - N/A   Clear